FW1932 Weather Reports


time (UTC)temp
C
wind
direction
speed
KPH
gust
KPH
rain 1hr
cm
rain 24hr
cm
rain mn
cm
humidity
%
barometer
mb
20260901224529 17 285 0.0 0.0 0.00 0.00 0.00 82 1023.1
20260901223027 17 285 0.0 1.6 0.00 0.00 0.00 75 1022.9
20260901221525 17 280 0.0 0.0 0.00 0.00 0.00 76 1022.9
20260901220022 17 280 0.0 0.0 0.00 0.00 0.00 74 1022.9
20260901214522 17 281 0.0 1.6 0.00 0.00 0.00 75 1022.8
20260901213027 17 251 0.0 1.6 0.00 0.00 0.00 73 1022.8
20260901211521 18 238 0.0 1.6 0.00 0.00 0.00 77 1022.8
20260901210022 18 129 0.0 1.6 0.00 0.00 0.00 74 1022.8
20260901204522 18 130 0.0 0.0 0.00 0.00 0.00 73 1022.8
20260901203020 18 130 0.0 0.0 0.00 0.00 0.00 70 1022.7
20260901201520 19 130 0.0 0.0 0.00 0.00 0.00 72 1022.8
20260901200019 20 130 0.0 0.0 0.00 0.00 0.00 74 1022.8
20260901194518 20 131 0.0 0.0 0.00 0.00 0.00 71 1022.7
20260901193018 21 130 0.0 3.2 0.00 0.00 0.00 65 1022.6
20260901191518 21 79 0.0 1.6 0.00 0.00 0.00 63 1022.6
20260901190024 21 79 0.0 1.6 0.00 0.00 0.00 63 1022.5
20260901184516 21 79 0.0 1.6 0.00 0.00 0.00 61 1022.4
20260901183023 21 79 0.0 0.0 0.00 0.00 0.00 61 1022.2
20260901181515 22 79 0.0 0.0 0.00 0.00 0.00 60 1022.2
20260901180019 22 79 0.0 1.6 0.00 0.00 0.00 59 1022.0
20260901174514 23 79 0.0 1.6 0.00 0.00 0.00 58 1021.9
20260901173013 23 84 0.0 3.2 0.00 0.00 0.00 56 1022.0
20260901171512 24 86 0.0 1.6 0.00 0.00 0.00 55 1021.8
20260901170017 25 77 0.0 1.6 0.00 0.00 0.00 53 1022.0
20260901164510 25 74 0.0 3.2 0.00 0.00 0.00 52 1022.0
20260901163009 25 72 0.0 3.2 0.00 0.00 0.00 51 1022.2
20260901161508 25 74 0.0 3.2 0.00 0.00 0.00 52 1022.2
20260901160011 26 248 0.0 1.6 0.00 0.00 0.00 52 1022.3
20260901154507 26 238 0.0 3.2 0.00 0.00 0.00 47 1022.2
20260901153005 26 240 0.0 1.6 0.00 0.00 0.00 49 1022.3
20260901151505 26 77 1.6 4.8 0.00 0.00 0.00 48 1022.4
20260901150007 26 84 0.0 1.6 0.00 0.00 0.00 51 1022.4
20260901144503 26 250 0.0 3.2 0.00 0.00 0.00 50 1022.4
20260901143002 26 79 0.0 1.6 0.00 0.00 0.00 50 1022.5
20260901141609 27 79 0.0 3.2 0.00 0.00 0.00 51 1022.6
20260901140058 26 88 0.0 6.4 0.00 0.00 0.00 51 1022.6
20260901134557 26 75 0.0 4.8 0.00 0.00 0.00 50 1022.7
20260901133101 25 103 0.0 1.6 0.00 0.00 0.00 52 1022.8
20260901131557 25 76 0.0 1.6 0.00 0.00 0.00 54 1023.0
20260901130053 25 70 0.0 1.6 0.00 0.00 0.00 53 1023.0
20260901124554 26 238 0.0 1.6 0.00 0.00 0.00 51 1023.0
20260901123052 25 82 0.0 1.6 0.00 0.00 0.00 54 1023.1
20260901121557 25 82 0.0 3.2 0.00 0.00 0.00 49 1023.2
20260901120103 27 231 0.0 6.4 0.00 0.00 0.00 46 1023.4
20260901114551 26 243 0.0 1.6 0.00 0.00 0.00 49 1023.4
20260901113051 26 259 1.6 9.7 0.00 0.00 0.00 46 1023.4
20260901111554 26 251 0.0 3.2 0.00 0.00 0.00 51 1023.6
20260901110046 26 85 0.0 1.6 0.00 0.00 0.00 52 1023.6
20260901104541 25 79 0.0 3.2 0.00 0.00 0.00 54 1023.7
20260901103042 24 238 1.6 8.0 0.00 0.00 0.00 54 1023.9
20260901101540 25 252 1.6 6.4 0.00 0.00 0.00 54 1024.0
20260901100039 25 70 0.0 4.8 0.00 0.00 0.00 55 1024.1
20260901094537 25 243 0.0 1.6 0.00 0.00 0.00 58 1024.1
20260901093034 23 74 0.0 3.2 0.00 0.00 0.00 61 1024.3
20260901091533 23 231 1.6 6.4 0.00 0.00 0.00 60 1024.3
20260901090027 22 221 0.0 6.4 0.00 0.00 0.00 64 1024.2
20260901084525 22 241 1.6 8.0 0.00 0.00 0.00 66 1024.3
20260901083023 22 263 0.0 4.8 0.00 0.00 0.00 67 1024.5
20260901081519 21 242 1.6 6.4 0.00 0.00 0.00 68 1024.5
20260901080018 21 238 0.0 4.8 0.00 0.00 0.00 69 1024.4
20260901074514 20 236 0.0 4.8 0.00 0.00 0.00 70 1024.2
20260901073011 20 245 0.0 3.2 0.00 0.00 0.00 73 1024.3
20260901071510 18 245 0.0 3.2 0.00 0.00 0.00 75 1024.2
20260901070013 18 234 0.0 3.2 0.00 0.00 0.00 76 1024.2
20260901064513 18 257 0.0 3.2 0.00 0.00 0.00 77 1024.2
20260901063015 17 189 0.0 1.6 0.00 0.00 0.00 80 1024.3
20260901061507 16 89 0.0 0.0 0.00 0.00 0.00 83 1024.2
20260901060017 16 89 0.0 0.0 0.00 0.00 0.00 83 1024.1
20260901054505 16 89 0.0 0.0 0.00 0.00 0.00 83 1023.9
20260901053006 16 89 0.0 1.6 0.00 0.00 0.00 83 1023.9
20260901051502 16 89 0.0 0.0 0.00 0.00 0.00 83 1023.8
20260901050059 16 89 0.0 0.0 0.00 0.00 0.00 81 1023.7
20260901044604 16 89 0.0 0.0 0.00 0.00 0.00 80 1023.7
20260901043056 16 89 0.0 1.6 0.00 0.00 0.00 78 1023.5
20260901041615 17 89 0.0 1.6 0.00 0.00 0.00 77 1023.7
20260901040127 17 103 0.0 3.2 0.00 0.00 0.00 76 1023.5
20260901034551 17 271 0.0 3.2 0.00 0.00 0.00 75 1023.4
20260901033049 17 264 0.0 3.2 0.00 0.00 0.00 75 1023.4
20260901031549 17 221 0.0 3.2 0.00 0.00 0.00 74 1023.4
20260901030047 17 110 0.0 4.8 0.00 0.00 0.00 74 1023.4
20260901024550 17 236 0.0 3.2 0.00 0.00 0.00 75 1023.6
20260901023045 17 188 0.0 4.8 0.00 0.00 0.00 74 1023.5
20260901021544 18 73 1.6 4.8 0.00 0.00 0.00 74 1023.4
20260901020045 18 84 0.0 4.8 0.00 0.00 0.00 74 1023.4
20260901014543 18 86 0.0 3.2 0.00 0.00 0.00 74 1023.4
20260901013044 18 102 1.6 8.0 0.00 0.00 0.00 73 1023.3
20260901011541 18 101 0.0 4.8 0.00 0.00 0.00 73 1023.4
20260901010051 18 71 1.6 6.4 0.00 0.00 0.00 72 1023.2
20260901004538 18 71 1.6 6.4 0.00 0.00 0.00 71 1023.1
20260901003039 19 99 0.0 3.2 0.00 0.00 0.00 71 1022.9
20260901001538 19 252 0.0 8.0 0.00 0.00 0.00 70 1023.1
20260901000040 19 215 0.0 1.6 0.00 0.00 0.00 71 1023.1
20260831234535 19 119 0.0 1.6 0.00 0.05 0.00 71 1022.9
20260831233042 19 270 0.0 1.6 0.00 0.05 0.00 72 1023.0
20260831231537 18 250 0.0 1.6 0.00 0.05 0.00 72 1022.9
20260831230032 18 212 0.0 1.6 0.00 0.05 0.00 73 1023.0